Location: ????????
(55.6189°N, 38.3031°E)
Time: 08:36:27
(UTC+00:00)

Cosmos 2016 Rocket - Pass Details

Date: 15 November 2019
Orbit: 947 x 1000 km, 83.0° (Epoch: 11 December)

Event Time Altitude Azimuth Distance (km) Brightness Sun altitude
Rises 03:33:38 0° 196° (SSW) 3,661 7.0 -12.0°
Reaches altitude 10° 03:36:08 10° 198° (SSW) 2,725 6.3 -11.7°
Maximum altitude 03:42:23 73° 283° (WNW) 1,035 4.0 -10.8°
Drops below altitude 10° 03:48:46 10° 9° (N) 2,775 6.3 -10.0°
Sets 03:51:20 0° 12° (NNE) 3,732 7.0 -9.6°
